sat.trackr.live / text

‹ back to catalog

KUIPER-00177

NORAD 67766 · 2026-030C

PAYLOAD ACTIVE UNKNOWN

§ Identity

Operator
Country
US
Launch date
2026-02-12
Launch site
FRGUI
Launch vehicle
Mass (kg)
RCS (m²)

External: N2YO · Heavens-Above · Gunter

§ Orbital elements

Epoch: 2026-09-20T21:56:47.524416Z

Period
97.31 min
Inclination
51.9072°
Eccentricity
0.0003259
Mean motion
14.79849374 rev/d
Perigee alt
627.5 km
Apogee alt
632.1 km
Semi-major
7,007.9 km
B*
-1.9006e-3
RAAN
69.8459°
Arg perigee
60.4697°
Mean anomaly
299.6590°
Rev number
3,408

§ Raw data

KUIPER-001771 67766U 26030C   26263.91443894 -.00014652  00000+0 -19006-2 0  99912 67766  51.9072  69.8459 0003259  60.4697 299.6590 14.79849374 34081

JSON: /api/v1/satellites/67766 · /tle

For live sub-satellite position, see the globe view (requires WebGL).

§ Visibility from observer

Set your observer location to see the next 7 days of passes ≥ 10°. The values pass through the URL so the page stays shareable.

No JS? Fill the form by hand. The geolocation button needs JavaScript.